• Join FlightAware (Why Join?)
  • Login
  • US Flag 
10:26AM EDT


 

Airport Tracker/Info


-or-


 

Live Flight TrackerFlight Track Log ✈ EJA922 ✈ 22-Jan-2014 ✈ KALB - KTEB

Flight Track Log - Related Links

Times and Time Zones

All times are in EST time to prevent confusion due to time zone crossing. See the EJA922 flight status page for this flight to view local times or setup timezone preferences in your user account.

Time Position Orientation Groundspeed Altitude Reporting Facility
EST Latitude Longitude Course Direction KTS MPH feet Rate Location/Type
03:50PM 42.7619 -73.8039 289° West 179 206 1,300  Level Boston Center
03:51PM 42.7806 -73.8772 289° West 263 303 7,400 4,620 Climbing Boston Center
03:52PM 42.7528 -73.8808 185° South 263 303 9,000 2,580 Climbing Boston Center
03:52PM 42.7017 -73.8739 174° South 314 361 10,000 1,080 Climbing Boston Center
03:53PM 42.6656 -73.8775 184° South 339 390 10,100 60 Climbing Boston Center
03:54PM 42.5658 -73.9383 204° Southwest 392 451 10,100  Level Boston Center
03:55PM 42.4708 -74.0092 209° Southwest 392 451 10,100  Level Boston Center
03:56PM 42.3753 -74.0797 209° Southwest 391 450 10,100  Level Boston Center
03:57PM 42.2711 -74.1553 208° Southwest 392 451 10,100  Level Boston Center
03:58PM 42.1956 -74.2128 209° Southwest 312 359 10,100  Level Boston Center
03:59PM 42.1258 -74.2631 208° Southwest 290 334 10,100  Level Boston Center
04:00PM 42.0603 -74.3214 213° Southwest 288 331 10,100 -60 Level Boston Center
04:01PM 42.0200 -74.4108 239° Southwest 282 325 10,000 -60 Descending Boston Center
04:02PM 41.9750 -74.5064 238° Southwest 283 326 10,000  Level Boston Center
04:03PM 41.9331 -74.5944 237° Southwest 283 326 10,000  Level Boston Center
04:04PM 41.8578 -74.6192 194° South 296 341 10,000  Level Boston Center
04:05PM 41.7742 -74.6117 176° South 300 345 10,000 -60 Level Boston Center
04:06PM 41.6844 -74.6081 178° South 300 345 9,900 -900 Descending Boston Center
04:07PM 41.6025 -74.6036 178° South 300 345 8,200 -1,620 Descending Boston Center
04:08PM 41.5250 -74.5992 178° South 285 328 6,700 -1,080 Descending Boston Center
04:09PM 41.4469 -74.5947 178° South 283 326 6,000 -360 Descending Boston Center
04:10PM 41.3617 -74.6114 188° South 293 337 6,000  Level Boston Center
04:11PM 41.2844 -74.6411 196° South 292 336 6,000  Level Boston Center
04:12PM 41.2094 -74.6675 195° South 283 326 6,000 -600 Level Boston Center
04:13PM 41.1306 -74.6653 179° South 285 328 4,800 -1,020 Descending Boston Center
04:14PM 41.0586 -74.6286 159° South 260 299 4,000 -780 Descending Boston Center
04:15PM 40.9942 -74.5931 157° South 252 290 3,300 -480 Descending Boston Center
04:16PM 40.9167 -74.5500 157° South 258 297 3,000 -180 Descending New York TRACON
04:17PM 40.8500 -74.5000 150° Southeast 232 267 3,000  Level New York TRACON
04:18PM 40.8167 -74.4333 123° Southeast 229 264 3,000 -180 Level New York TRACON
04:19PM 40.7833 -74.3833 131° Southeast 224 258 2,700 -540 Descending New York TRACON
04:20PM 40.7333 -74.3167 135° Southeast 197 227 2,000 -600 Descending New York TRACON
04:21PM 40.7333 -74.2333 90° East 201 231 1,500 -300 Descending New York TRACON
04:22PM 40.7667 -74.1833 49° Northeast 188 216 1,500  Level New York TRACON
04:23PM 40.8000 -74.1333 49° Northeast 181 208 1,500 -300 Level New York TRACON
04:24PM 40.8167 -74.0833 66° East 144 166 1,000 -600 Descending New York TRACON